Location: Santa Cristina
(46.5667°N, 11.7167°E)
Time: 16:31:23
(UTC+00:00)

SL-24 R/B - RUBIN 2 - Pass Details

Date: 21 April 2021
Orbit: 580 x 1015 km, 64.6° (Epoch: 11 May)

Event Time Altitude Azimuth Distance (km) Brightness Sun altitude
Rises 02:57:04 0° 322° (NW) 3,460 7.3 -12.9°
Reaches altitude 10° 02:59:42 10° 323° (NW) 2,450 6.6 -12.5°
Maximum altitude 03:05:20 89° 52° (NE) 764 4.0 -11.7°
Drops below altitude 10° 03:10:14 10° 144° (SE) 2,145 6.4 -11.0°
Sets 03:12:25 0° 144° (SE) 2,999 7.2 -10.7°
